Home   Weather   Hartford   Past weeks

Flag for USA Past Weather in Hartford, Connecticut, USA — Yesterday and Last 2 Weeks

Now
62 °F

Mostly cloudy.


Feels Like: 62 °F
Forecast: 60 / 73 °F
Wind: 7 mph from South

Location: Hartford-Brainard Airport

Current Time: Sep 26, 2016 at 10:08:47 PM

Latest Report: Sep 26, 2016 at 8:53 PM


Visibility: 10 mi

Pressure: 30.05 "Hg

Humidity: 67%

Dew Point: 51 °F

Location of HartfordLocation

Past Weather in Hartford — Graph

°F

Hartford Temperature Yesterday

Maximum temperature yesterday: 68 °F (at 2:53 PM)
Minimum temperature yesterday: 42 °F (at 6:53 AM)
Average temperature yesterday: 55 °F

High & Low Weather Summary for the Past Weeks

 TemperatureHumidityPressure
High93 °F (Sep 14, 2:53 PM)100% (Sep 20, 4:53 AM)30.36 "Hg (Sep 20, 4:53 AM)
Low41 °F (Sep 26, 4:53 AM)27% (Sep 25, 2:53 PM)29.91 "Hg (Sep 23, 3:53 PM)
Average68 °F70%30.13 "Hg
* Reported Sep 11 8:53 PM — Sep 26 8:53 PM, Hartford, Weather by CustomWeather, © 2016

Note: Actual official high and low records may vary slightly from our data, if they occured in-between our weather recording intervals... More about our weather records

Advertising

Hartford Weather History for the Previous 24 Hours

Scroll right to see more
 ConditionsComfort  
Time TempWeatherWind HumidityBarometerVisibility
8:53 PM
Mon, Sep 26
62 °FMostly cloudy.7 mph67%30.05 "Hg10 mi
7:53 PM62 °FPassing clouds.9 mph65%30.06 "Hg10 mi
6:53 PM63 °FClear.6 mph63%30.05 "Hg10 mi
5:53 PM65 °FSunny.9 mph56%30.06 "Hg10 mi
4:53 PM66 °FSunny.10 mph54%30.07 "Hg10 mi
3:53 PM67 °FPartly sunny.9 mph51%30.11 "Hg10 mi
2:53 PM68 °FPassing clouds.9 mph45%30.11 "Hg10 mi
1:53 PM68 °FSunny.12 mph39%30.13 "Hg10 mi
12:53 PM66 °FSunny.9 mph40%30.16 "Hg10 mi
11:53 AM62 °FSunny.5 mph48%30.18 "Hg10 mi
10:53 AM57 °FSunny.No wind55%30.21 "Hg10 mi
9:53 AM51 °FSunny.No wind74%30.23 "Hg10 mi
8:53 AM48 °FSunny.No wind80%30.24 "Hg10 mi
7:53 AM45 °FSunny.3 mph90%30.24 "Hg9 mi
6:53 AM41 °FSunny.6 mph93%30.23 "Hg10 mi
5:53 AM42 °FClear.No wind96%30.22 "Hg10 mi
4:53 AM41 °FClear.No wind96%30.20 "Hg10 mi
3:53 AM44 °FClear.No wind93%30.21 "Hg10 mi
2:53 AM43 °FClear.No wind100%30.22 "Hg10 mi
1:53 AM45 °FClear.No wind97%30.22 "Hg10 mi
12:53 AM46 °FClear.No wind89%30.22 "Hg10 mi
11:53 PM
Sun, Sep 25
47 °FClear.No wind83%30.20 "Hg10 mi
10:53 PM49 °FClear.No wind86%30.19 "Hg10 mi
Weather by CustomWeather, © 2016

See weather overviewHow to use our weather pages